If you wish to contribute or participate in the discussions about articles you are invited to join SKYbrary as a registered user

 Actions

Budapest/Ferihegy

From SKYbrary Wiki

LHBP
Airport
ICAO: LHBP
Summary
Name Budapest/Ferihegy
Region Europe
Territory Hungary HU.gif
Location Budapest, Hungary
Serving
Coordinates 47° 26' 24.00" N, 19° 15' 42.00" E
Runways
Designator Length Width Surface ROPS
13L/31R 3707 m12,162.074 ft
45 m147.638 ft
CON yes/yes
13R/31L 3010 m9,875.328 ft
45 m147.638 ft
CON yes/yes


METAR
Observation LHBP 230800Z 02006KT 350V050 CAVOK 24/19 Q1024 NOSIG
Station Budapest / Ferihegy
Date/Time 23 August 2019 08:00:00
Wind direction 20°
Wind speed 06 kts
Lowest cloud amount clouds and visibility OK
Temperature 24°C
Dew point 19°C
Humidity 73%
QNH 1024 hPa
Weather condition n/a

Budapest/Ferihegy Airport

ICAO: LHBP IATA: BUD

Description

International airport serving capital of Hungary.

Climatology

Humid Continental climate (Köppen climate classification Dfb) - Variable weather patterns and a large seasonal temperature variance. Summers are often warm and humid with frequent thunderstorms and winters can be very cold with frequent snowfall and persistent snow cover.

Maps

Terrain

Loading map...

Airport Layout

Loading map...


Accidents & Serious Incidents at or in vicinity of LHBP

None on SKYbrary